#timestamp,LO_Frequency,Hit,Temp,Hum 
1480006815.3,286046984.3,N,0.0,0.0
1480006835.1,286046986.3,N,0.0,0.0
1480006855.9,286046985.6,N,0.0,0.0
1480006875.7,286046986.0,N,0.0,0.0
1480006895.6,286046986.2,N,0.0,0.0
1480006915.4,286046986.3,N,0.0,0.0
1480006935.2,286046986.2,N,0.0,0.0
1480006955.1,286046985.6,N,0.0,0.0
1480006956.0,286046985.6,N,0.0,0.0
1480006975.8,286046986.6,N,0.0,0.0
1480006995.6,286046988.0,N,0.0,0.0
1480007015.5,286046988.0,N,0.0,0.0
1480007035.3,286046986.5,N,0.0,0.0
1480007055.2,286046983.7,N,0.0,0.0
1480007075.9,286046983.9,N,0.0,0.0
1480007095.7,286046986.5,N,0.0,0.0
1480007115.6,286046985.4,N,0.0,0.0
1480007135.4,286046987.0,N,0.0,0.0
1480007155.2,286046990.0,N,0.0,0.0
1480007175.1,286046986.9,N,0.0,0.0
1480007176.0,286046986.9,N,0.0,0.0
1480007195.8,286046989.8,N,0.0,0.0
1480007215.7,286046989.8,N,0.0,0.0
1480007235.5,286046986.9,N,0.0,0.0
1480007255.3,286046987.1,N,0.0,0.0
1480007275.2,286046990.0,N,0.0,0.0
1480007295.0,286046987.5,N,0.0,0.0
1480007295.9,286046987.5,N,0.0,0.0
1480007315.8,286046987.4,N,0.0,0.0
1480007335.6,286046987.8,N,0.0,0.0
1480007355.4,286046987.6,N,0.0,0.0
1480007375.3,286046989.9,N,0.0,0.0
1480007395.1,286046988.8,N,0.0,0.0
1480007415.9,286046989.2,N,0.0,0.0
1480007435.7,286046987.0,N,0.0,0.0
1480007455.5,286046987.5,N,0.0,0.0
1480007475.4,286046987.6,N,0.0,0.0
1480007495.2,286046987.1,N,0.0,0.0
1480007515.0,286046989.0,N,0.0,0.0
1480007515.9,286046989.0,N,0.0,0.0
1480007535.8,286046988.9,N,0.0,0.0
1480007555.6,286046988.9,N,0.0,0.0
1480007575.5,286046990.8,N,0.0,0.0
1480007595.3,286046990.3,N,0.0,0.0
1480007615.1,286046990.5,N,0.0,0.0
1480007635.9,286046991.0,N,0.0,0.0
1480007655.7,286046991.6,N,0.0,0.0
1480007675.5,286046989.0,N,0.0,0.0
1480007695.4,286046989.8,N,0.0,0.0
1480007715.2,286046989.6,N,0.0,0.0
1480007735.1,286046987.2,N,0.0,0.0
1480007736.0,286046987.2,N,0.0,0.0
1480007755.8,286046987.6,N,0.0,0.0
1480007775.6,286046987.1,N,0.0,0.0
1480007795.5,286046987.2,N,0.0,0.0
1480007815.3,286046989.9,N,0.0,0.0
1480007835.2,286046989.3,N,0.0,0.0
1480007855.9,286046989.5,N,0.0,0.0
1480007875.7,286046991.4,N,0.0,0.0
1480007895.6,286046988.6,N,0.0,0.0
1480007915.4,286046991.0,N,0.0,0.0
1480007935.2,286046990.4,N,0.0,0.0
1480007955.1,286046991.8,N,0.0,0.0
1480007956.0,286046991.8,N,0.0,0.0
1480007975.8,286046990.1,N,0.0,0.0
1480007995.7,286046992.5,N,0.0,0.0
1480008015.5,286046992.1,N,0.0,0.0
1480008035.3,286046991.7,N,0.0,0.0
1480008055.2,286046991.8,N,0.0,0.0
1480008075.0,286046994.2,N,0.0,0.0
1480008075.9,286046994.2,N,0.0,0.0
1480008095.8,286046996.4,N,0.0,0.0
1480008115.6,286046995.8,N,0.0,0.0
1480008135.4,286046997.2,N,0.0,0.0
1480008155.3,286046997.2,N,0.0,0.0
1480008175.1,286046997.0,N,0.0,0.0
1480008195.8,286046999.6,N,0.0,0.0
1480008215.7,286046999.1,N,0.0,0.0
1480008235.5,286046999.5,N,0.0,0.0
1480008255.4,286047001.2,N,0.0,0.0
1480008275.2,286047000.7,N,0.0,0.0
1480008295.0,286046999.9,N,0.0,0.0
1480008295.9,286046999.9,N,0.0,0.0
1480008315.8,286046999.7,N,0.0,0.0
1480008335.6,286047001.5,N,0.0,0.0
1480008355.5,286047004.3,N,0.0,0.0
1480008375.3,286047003.6,N,0.0,0.0
1480008395.1,286047003.5,N,0.0,0.0
1480008415.9,286047005.6,N,0.0,0.0
1480008435.7,286047003.0,N,0.0,0.0
1480008455.5,286047005.5,N,0.0,0.0
1480008475.4,286047006.0,N,0.0,0.0
1480008495.2,286047003.3,N,0.0,0.0
1480008515.1,286047002.9,N,0.0,0.0
1480008516.0,286047002.9,N,0.0,0.0
1480008535.8,286047005.3,N,0.0,0.0
1480008555.6,286047005.4,N,0.0,0.0
1480008575.5,286047005.6,N,0.0,0.0
1480008595.3,286047006.0,N,0.0,0.0
1480008615.2,286047005.8,N,0.0,0.0
1480008635.9,286047005.4,N,0.0,0.0
1480008655.7,286047005.4,N,0.0,0.0
1480008675.6,286047005.4,N,0.0,0.0
1480008695.4,286047005.6,N,0.0,0.0
1480008715.2,286047004.9,N,0.0,0.0
1480008735.1,286047005.9,N,0.0,0.0
1480008736.0,286047005.9,N,0.0,0.0
1480008755.8,286047005.7,N,0.0,0.0
1480008775.7,286047004.9,N,0.0,0.0
1480008795.5,286047009.2,N,0.0,0.0
1480008815.3,286047006.2,N,0.0,0.0
1480008835.2,286047006.1,N,0.0,0.0
1480008855.0,286047007.5,N,0.0,0.0
1480008855.9,286047007.5,N,0.0,0.0
1480008875.8,286047007.2,N,0.0,0.0
1480008895.6,286047006.2,N,0.0,0.0
1480008915.4,286047006.6,N,0.0,0.0
1480008935.3,286047007.3,N,0.0,0.0
1480008955.1,286047006.9,N,0.0,0.0
1480008975.9,286047008.5,N,0.0,0.0
1480008995.7,286047006.1,N,0.0,0.0
1480009015.5,286047007.8,N,0.0,0.0
1480009035.4,286047007.7,N,0.0,0.0
1480009055.2,286047008.3,N,0.0,0.0
1480009075.0,286047006.6,N,0.0,0.0
1480009075.9,286047006.6,N,0.0,0.0
1480009095.8,286047006.3,N,0.0,0.0
1480009115.6,286047008.4,N,0.0,0.0
1480009135.5,286047008.7,N,0.0,0.0
1480009155.3,286047008.4,N,0.0,0.0
1480009175.1,286047008.1,N,0.0,0.0
1480009195.9,286047008.2,N,0.0,0.0
1480009215.7,286047008.2,N,0.0,0.0
1480009235.5,286047010.7,N,0.0,0.0
1480009255.4,286047009.6,N,0.0,0.0
1480009275.2,286047009.5,N,0.0,0.0
1480009295.1,286047009.3,N,0.0,0.0
1480009296.0,286047009.3,N,0.0,0.0
1480009315.8,286047009.5,N,0.0,0.0
1480009335.6,286047009.6,N,0.0,0.0
1480009355.5,286047011.1,N,0.0,0.0
1480009375.3,286047012.3,N,0.0,0.0
1480009395.2,286047012.1,N,0.0,0.0
1480009415.9,286047011.6,N,0.0,0.0
1480009435.7,286047013.6,N,0.0,0.0
1480009455.6,286047012.7,N,0.0,0.0
1480009475.4,286047014.1,N,0.0,0.0
1480009495.2,286047015.5,N,0.0,0.0
1480009515.1,286047012.6,N,0.0,0.0
1480009516.0,286047012.6,N,0.0,0.0
1480009535.8,286047011.8,N,0.0,0.0
1480009555.7,286047013.2,N,0.0,0.0
1480009575.5,286047013.7,N,0.0,0.0
1480009595.3,286047015.1,N,0.0,0.0
1480009615.2,286047014.1,N,0.0,0.0
1480009635.0,286047014.9,N,0.0,0.0
1480009635.9,286047014.9,N,0.0,0.0
1480009655.8,286047015.3,N,0.0,0.0
1480009675.6,286047016.7,N,0.0,0.0
1480009695.4,286047018.5,N,0.0,0.0
1480009715.3,286047016.9,N,0.0,0.0
1480009735.1,286047015.1,N,0.0,0.0
1480009755.8,286047014.2,N,0.0,0.0
1480009775.7,286047014.6,N,0.0,0.0
1480009795.5,286047012.7,N,0.0,0.0
1480009815.4,286047016.9,N,0.0,0.0
1480009835.2,286047018.8,N,0.0,0.0
1480009855.0,286047016.0,N,0.0,0.0
1480009855.9,286047016.0,N,0.0,0.0
1480009875.8,286047018.6,N,0.0,0.0
1480009895.6,286047020.0,N,0.0,0.0
1480009915.5,286047018.7,N,0.0,0.0
1480009935.3,286047017.0,N,0.0,0.0
1480009955.1,286047017.9,N,0.0,0.0
1480009975.9,286047020.0,N,0.0,0.0
1480009995.7,286047017.8,N,0.0,0.0
1480010015.5,286047018.5,N,0.0,0.0
1480010035.4,286047015.9,N,0.0,0.0
1480010055.2,286047017.4,N,0.0,0.0
1480010075.1,286047019.3,N,0.0,0.0
1480010076.0,286047019.3,N,0.0,0.0
1480010095.8,286047021.5,N,0.0,0.0
1480010115.6,286047021.2,N,0.0,0.0
1480010135.5,286047021.5,N,0.0,0.0
1480010155.3,286047019.3,N,0.0,0.0
1480010175.1,286047020.6,N,0.0,0.0
1480010195.9,286047023.3,N,0.0,0.0
1480010215.7,286047024.8,N,0.0,0.0
1480010235.6,286047024.9,N,0.0,0.0
1480010255.4,286047024.7,N,0.0,0.0
1480010275.2,286047023.0,N,0.0,0.0
1480010295.1,286047020.8,N,0.0,0.0
1480010296.0,286047020.8,N,0.0,0.0
1480010315.8,286047021.5,N,0.0,0.0
1480010335.7,286047021.3,N,0.0,0.0
1480010355.5,286047020.7,N,0.0,0.0
1480010375.3,286047022.5,N,0.0,0.0
1480010395.2,286047024.8,N,0.0,0.0
